This is the latest recevied weather packets stored in our database for station/object DK9HI-WX. If no packets are shown the sender has not sent any weather packets the latest 10 day(s).
| Time | Temp. | Humidity | Pressure | Rain* | Wind** | Luminosity | Snow |
|---|---|---|---|---|---|---|---|
| 1777182757 | 6.11° C | 91% | 1026.2 hPa | - | - | - | - |
| 1777182157 | 6.67° C | 88% | 1026.1 hPa | - | - | - | - |
| 1777181559 | 5.56° C | 92% | 1025.9 hPa | - | - | - | - |
| 1777180956 | 5.56° C | 91% | 1025.8 hPa | - | - | - | - |
| 1777180358 | 5° C | 93% | 1025.7 hPa | - | - | - | - |
| 1777179756 | 5° C | 90% | 1025.7 hPa | - | - | - | - |
| 1777179156 | 5° C | 90% | 1025.6 hPa | - | - | - | - |
| 1777178556 | 5° C | 90% | 1025.4 hPa | - | - | - | - |
| 1777177956 | 5° C | 89% | 1025.3 hPa | - | - | - | - |
| 1777177356 | 5° C | 89% | 1025.1 hPa | - | - | - | - |
| 1777176758 | 5° C | 87% | 1025 hPa | - | - | - | - |
| 1777176156 | 5° C | 87% | 1024.8 hPa | - | - | - | - |
| 1777175556 | 5.56° C | 88% | 1024.8 hPa | - | - | - | - |
| 1777174956 | 5° C | 87% | 1024.7 hPa | - | - | - | - |
| 1777174356 | 5° C | 86% | 1024.6 hPa | - | - | - | - |
| 1777173756 | 5.56° C | 86% | 1024.5 hPa | - | - | - | - |
| 1777173156 | 5.56° C | 85% | 1024.4 hPa | - | - | - | - |
| 1777172557 | 5.56° C | 84% | 1024.3 hPa | - | - | - | - |
| 1777171956 | 5.56° C | 83% | 1024.2 hPa | - | - | - | - |
| 1777171358 | 5.56° C | 83% | 1024.1 hPa | - | - | - | - |
| 1777170756 | 5.56° C | 81% | 1024 hPa | - | - | - | - |
| 1777170157 | 6.11° C | 81% | 1023.9 hPa | - | - | - | - |
| 1777169556 | 6.11° C | 79% | 1024 hPa | - | - | - | - |
| 1777168957 | 6.11° C | 78% | 1023.7 hPa | - | - | - | - |
| 1777168356 | 6.11° C | 78% | 1023.5 hPa | - | - | - | - |
* Rain since midnight (hover to see other rain measurements)
** Current wind speed in m/s (hover to see current wind gust speed)